Terug naar catalogus

STARLINK-35023

ActiefCommunicatieSSO
NORAD 65279·PAYLOAD·🇺🇸 United States

Gelanceerd Aug 22, 2025 vanaf Vandenberg Space Force Base

Loading…

Volgende Passages (komende 24 uur)

TLE

VersSource: CelesTrak SupGP

Epoch: Sep 14, 2026, 20:51 UTC

1 65279C 25184G   26257.86923611 -.00013636  00000+0 -42336-3 0  2575
2 65279  97.2835 305.8862 0001158  95.1046 107.9181 15.33442248    11

Volg STARLINK-35023 in realtime met AllMySat

Download on the App Store